ARIANE 2 DEB, 26726

Orbit data source: Space-Track

ARIANE 2 DEB, 26726 is space debris in HEO originally from a launch on Fri, 27 Jan 1989 UTC launched from the French Guiana (FRGUI). Debris objects in space refer to the collection of defunct objects orbiting the Earth. Examples of debris include non-operational satellites, rocket bodies, and fragments generated from explosions, collisions, or faulty payload assembly.

Loading next visibility...
Identifier
26726, 1989-006D
Orbit
HEO
Country
Flag of FRFR
Related business
Manufacturer
EADS/LV
Mission
Spacecraft
Bus & Motor
Unknown
Mass
Unknown
Launch date (UTC)
1989-01-27 (37 years ago)
Launch vehicle
Unknown
Launch site
French Guiana (FRGUI)
Object type
Payload
Rocket body
Debris
Shape & HBR
Unknown shape, 0.5 m
Radar Cross Section
Medium (>0.1 m² and <1 m²)

Expand to show TLE details & history
Last TLE update: 3 days ago

TLE from 3 days ago
0 ARIANE 2 DEB
1 26726U 89006D   26171.10271006  .00000077  00000-0  15095-2 0  9996
2 26726   8.0822  93.5640 7163224  41.8408  64.4861  2.27671257211284
Epoch: 2026-06-20T02:27Z
TLE epoch observation values (Epoch: 2026-06-20T02:27:54.149Z)
Latitude
-0.96735°
Longitude
-25.01862°
Altitude
22,381.858 km
Speed
3.375 km/s
True Right ascension
18h 41m 06s
True Declination
0° 57' 57"
Sunlit
Object was in daylight at epoch
Visualization orbit readout
Latitude
Unknown
Longitude
Unknown
Altitude
Unknown
Speed
Unknown
Apparent Right ascension
Unknown
Apparent Declination
Unknown
Sunlit
N/A
Visualization observer readout
Local Sidereal Time
10:02:27
Azimuth
Unknown
Elevation
Unknown
Doppler factor
Unknown
Orbital elements
Apogee altitude
35,522.493 km
Perigee altitude
547.293 km
Semi-major axis
24,413.03 km
Eccentricity
0.71632
Inclination
8.0822°
RAAN
93.564°
Arg. of periapsis
41.8408°
True anomaly
144.91338°
Mean anomaly
64.4861°
Eccentric anomaly
104.26319°
Mean motion
0.569 °/min
Orbital period
632.69 mins
BSTAR
0.0015095
Loading maneuver chart data...
Computing Atmospheric mass density...
Loading historical data...
Loading historical data...
Loading historical data...
Loading historical data...
Loading historical data...
Loading historical data...
Loading historical data...

Documentation

Showing up to 5 results
|